DLH896 EDDF-EYVI

Flight info

Callsign DLH896
Flight time 1h 39m
Altitude 37000
Route TOBAK2D TOBAK N858 FEDZA Y172 MAG DCT GILAS M994 DENKO N858 BOKSU DCT IRKAL
Aircraft A320/M-SDE3FGHIRWY/LB1

Departure

Time 2026-05-08 23:20
Airport Frankfurt Main Airport (EDDF)

Arrival

Time 2026-05-09 01:00
Airport Vilnius International Airport (EYVI)
Time Latitude Longitude Altitude Speed Heading
2026-05-08 22:49 50.04785 8.56771 356 ft 0 kts 114°
2026-05-08 23:07 50.04786 8.56771 362 ft 1 kts 114°
2026-05-08 23:07 50.04796 8.56736 364 ft 4 kts 117°
2026-05-08 23:07 50.04809 8.56700 356 ft 4 kts 129°
2026-05-08 23:07 50.04812 8.56692 356 ft 4 kts 149°
2026-05-08 23:08 50.04791 8.56680 356 ft 3 kts 206°
2026-05-08 23:08 50.04768 8.56663 363 ft 4 kts 206°
2026-05-08 23:08 50.04746 8.56640 356 ft 4 kts 221°
2026-05-08 23:08 50.04730 8.56607 364 ft 3 kts 239°
2026-05-08 23:09 50.04719 8.56579 358 ft 4 kts 238°
2026-05-08 23:09 50.04701 8.56549 360 ft 4 kts 220°
2026-05-08 23:09 50.04681 8.56533 359 ft 0 kts 202°
2026-05-08 23:11 50.04681 8.56532 356 ft 0 kts 202°
2026-05-08 23:11 50.04655 8.56516 362 ft 5 kts 202°
2026-05-08 23:11 50.04627 8.56497 362 ft 4 kts 203°
2026-05-08 23:12 50.04585 8.56466 359 ft 10 kts 206°
2026-05-08 23:12 50.04516 8.56390 360 ft 12 kts 238°
2026-05-08 23:12 50.04491 8.56277 359 ft 10 kts 249°
2026-05-08 23:12 50.04468 8.56183 362 ft 8 kts 251°
2026-05-08 23:13 50.04451 8.56105 361 ft 7 kts 250°
2026-05-08 23:13 50.04436 8.56045 364 ft 5 kts 246°
2026-05-08 23:13 50.04416 8.55972 362 ft 9 kts 245°
2026-05-08 23:13 50.04373 8.55917 356 ft 8 kts 192°
2026-05-08 23:14 50.04325 8.55942 361 ft 7 kts 150°
2026-05-08 23:14 50.04281 8.55973 360 ft 7 kts 163°
2026-05-08 23:14 50.04241 8.55956 362 ft 6 kts 233°
2026-05-08 23:14 50.04222 8.55878 357 ft 13 kts 251°
2026-05-08 23:15 50.04189 8.55730 361 ft 14 kts 249°
2026-05-08 23:15 50.04155 8.55593 356 ft 13 kts 250°
2026-05-08 23:15 50.04127 8.55469 355 ft 11 kts 250°
2026-05-08 23:15 50.04102 8.55365 355 ft 11 kts 250°
2026-05-08 23:16 50.04071 8.55235 359 ft 15 kts 249°
2026-05-08 23:16 50.04030 8.55062 357 ft 18 kts 250°
2026-05-08 23:16 50.03938 8.54987 354 ft 19 kts 157°
2026-05-08 23:16 50.03833 8.55014 355 ft 18 kts 212°
2026-05-08 23:17 50.03779 8.54826 353 ft 17 kts 251°
2026-05-08 23:17 50.03722 8.54709 353 ft 13 kts 197°
2026-05-08 23:17 50.03664 8.54723 352 ft 0 kts 159°
2026-05-08 23:19 50.03627 8.54745 344 ft 9 kts 159°
2026-05-08 23:19 50.03588 8.54799 352 ft 9 kts 103°
2026-05-08 23:19 50.03645 8.55053 345 ft 56 kts 71°
2026-05-08 23:20 50.03861 8.55958 353 ft 120 kts 69°
2026-05-08 23:20 50.04211 8.57423 410 ft 163 kts 69°
2026-05-08 23:20 50.04599 8.59051 1100 ft 160 kts 69°
2026-05-08 23:20 50.04971 8.60678 1843 ft 159 kts 69°
2026-05-08 23:21 50.05355 8.62405 2252 ft 179 kts 70°
2026-05-08 23:21 50.05780 8.64338 2559 ft 200 kts 70°
2026-05-08 23:21 50.06267 8.66512 3039 ft 218 kts 71°
2026-05-08 23:21 50.06769 8.68761 3811 ft 221 kts 71°
2026-05-08 23:22 50.07556 8.70848 4529 ft 229 kts 46°
2026-05-08 23:22 50.08927 8.72259 4919 ft 253 kts 24°
2026-05-08 23:22 50.10599 8.73366 5503 ft 266 kts 24°
2026-05-08 23:22 50.12324 8.74506 6296 ft 271 kts 23°
2026-05-08 23:23 50.14076 8.75673 7092 ft 276 kts 24°
2026-05-08 23:23 50.15852 8.76866 7877 ft 280 kts 24°
2026-05-08 23:23 50.17652 8.78082 8645 ft 284 kts 23°
2026-05-08 23:23 50.19483 8.79322 9366 ft 290 kts 23°
2026-05-08 23:24 50.21348 8.80585 10098 ft 294 kts 23°
2026-05-08 23:24 50.23260 8.81883 10552 ft 310 kts 23°
2026-05-08 23:24 50.25320 8.83269 10755 ft 334 kts 20°
2026-05-08 23:24 50.27624 8.84235 10984 ft 352 kts
2026-05-08 23:25 50.30092 8.84333 11540 ft 358 kts 353°
2026-05-08 23:25 50.32571 8.83818 12206 ft 361 kts 351°
2026-05-08 23:25 50.35073 8.83282 12876 ft 365 kts 351°
2026-05-08 23:25 50.37597 8.82748 13543 ft 368 kts 351°
2026-05-08 23:26 50.40147 8.82209 14178 ft 371 kts 351°
2026-05-08 23:26 50.42720 8.81662 14793 ft 374 kts 351°
2026-05-08 23:26 50.45312 8.81105 15387 ft 377 kts 351°
2026-05-08 23:26 50.47927 8.80544 15968 ft 380 kts 351°
2026-05-08 23:27 50.50564 8.80023 16534 ft 384 kts 355°
2026-05-08 23:27 50.53242 8.80256 17061 ft 390 kts
2026-05-08 23:27 50.55834 8.81563 17587 ft 395 kts 24°
2026-05-08 23:27 50.58160 8.83886 18099 ft 399 kts 39°
2026-05-08 23:28 50.60054 8.87091 18589 ft 403 kts 54°
2026-05-08 23:28 50.61480 8.90919 19066 ft 406 kts 61°
2026-05-08 23:28 50.62841 8.94833 19569 ft 409 kts 61°
2026-05-08 23:28 50.64209 8.98782 20034 ft 412 kts 61°
2026-05-08 23:29 50.65587 9.02771 20492 ft 415 kts 61°
2026-05-08 23:29 50.66952 9.06725 20944 ft 417 kts 61°
2026-05-08 23:29 50.68344 9.10758 21373 ft 420 kts 61°
2026-05-08 23:29 50.69747 9.14829 21786 ft 423 kts 61°
2026-05-08 23:30 50.71158 9.18923 22203 ft 426 kts 61°
2026-05-08 23:30 50.72563 9.23050 22596 ft 429 kts 62°
2026-05-08 23:30 50.73930 9.27257 22980 ft 432 kts 63°
2026-05-08 23:30 50.75265 9.31511 23364 ft 434 kts 63°
2026-05-08 23:31 50.76589 9.35809 23740 ft 437 kts 64°
2026-05-08 23:31 50.77915 9.40142 24086 ft 439 kts 64°
2026-05-08 23:31 50.79254 9.44514 24442 ft 442 kts 63°
2026-05-08 23:31 50.80605 9.48887 24794 ft 444 kts 63°
2026-05-08 23:32 50.81974 9.53278 25134 ft 446 kts 63°
2026-05-08 23:32 50.83352 9.57681 25461 ft 448 kts 63°
2026-05-08 23:32 50.84737 9.62107 25789 ft 450 kts 63°
2026-05-08 23:32 50.86126 9.66559 26099 ft 452 kts 63°
2026-05-08 23:33 50.87500 9.70982 26415 ft 454 kts 63°
2026-05-08 23:33 50.88888 9.75482 26724 ft 456 kts 63°
2026-05-08 23:33 50.90281 9.80022 27034 ft 458 kts 63°
2026-05-08 23:33 50.91671 9.84576 27329 ft 460 kts 64°
2026-05-08 23:34 50.93066 9.89154 27601 ft 462 kts 64°
2026-05-08 23:34 50.94467 9.93747 27868 ft 464 kts 64°
2026-05-08 23:34 50.95875 9.98364 28130 ft 466 kts 64°
2026-05-08 23:34 50.97290 10.03004 28394 ft 468 kts 63°
2026-05-08 23:35 50.98705 10.07658 28642 ft 470 kts 64°
2026-05-08 23:35 51.00126 10.12337 28882 ft 471 kts 64°
2026-05-08 23:35 51.01552 10.17033 29123 ft 473 kts 64°
2026-05-08 23:35 51.02981 10.21749 29368 ft 474 kts 64°
2026-05-08 23:36 51.04406 10.26472 29681 ft 474 kts 64°
2026-05-08 23:36 51.05916 10.31111 30020 ft 472 kts 56°
2026-05-08 23:36 51.07948 10.35173 30314 ft 469 kts 44°
2026-05-08 23:36 51.10397 10.38560 30621 ft 466 kts 34°
2026-05-08 23:37 51.13089 10.41423 30907 ft 465 kts 31°
2026-05-08 23:37 51.15810 10.44228 31192 ft 465 kts 32°
2026-05-08 23:37 51.18505 10.47090 31485 ft 464 kts 32°
2026-05-08 23:37 51.21181 10.49974 31766 ft 464 kts 32°
2026-05-08 23:38 51.23854 10.52861 32052 ft 464 kts 32°
2026-05-08 23:38 51.26528 10.55736 32330 ft 463 kts 32°
2026-05-08 23:38 51.29170 10.58560 32603 ft 463 kts 32°
2026-05-08 23:38 51.31854 10.61413 32879 ft 463 kts 32°
2026-05-08 23:39 51.34532 10.64254 33154 ft 462 kts 32°
2026-05-08 23:39 51.37215 10.67096 33408 ft 462 kts 31°
2026-05-08 23:39 51.39866 10.69998 33664 ft 462 kts 33°
2026-05-08 23:39 51.42464 10.73033 33928 ft 462 kts 35°
2026-05-08 23:40 51.45020 10.76161 34189 ft 462 kts 36°
2026-05-08 23:40 51.47555 10.79338 34430 ft 462 kts 36°
2026-05-08 23:40 51.50100 10.82541 34678 ft 462 kts 36°
2026-05-08 23:40 51.52564 10.85875 34911 ft 464 kts 43°
2026-05-08 23:41 51.54741 10.89702 35114 ft 466 kts 50°
2026-05-08 23:41 51.56767 10.93696 35309 ft 466 kts 49°
2026-05-08 23:41 51.58822 10.97741 35501 ft 467 kts 49°
2026-05-08 23:41 51.60876 11.01785 35704 ft 467 kts 49°
2026-05-08 23:42 51.62925 11.05833 35900 ft 467 kts 49°
2026-05-08 23:42 51.64971 11.09897 36090 ft 467 kts 50°
2026-05-08 23:42 51.67016 11.13969 36273 ft 467 kts 50°
2026-05-08 23:42 51.69061 11.18049 36429 ft 468 kts 50°
2026-05-08 23:43 51.71112 11.22149 36586 ft 469 kts 50°
2026-05-08 23:43 51.73156 11.26238 36785 ft 468 kts 50°
2026-05-08 23:43 51.75200 11.30321 37073 ft 465 kts 49°
2026-05-08 23:43 51.77230 11.34375 37173 ft 464 kts 50°
2026-05-08 23:44 51.81285 11.42505 37195 ft 464 kts 50°
2026-05-08 23:44 51.85328 11.50650 37186 ft 464 kts 50°
2026-05-08 23:45 51.89361 11.58813 37196 ft 464 kts 50°
2026-05-08 23:45 51.93363 11.66929 37193 ft 464 kts 50°
2026-05-08 23:46 51.97392 11.75114 37195 ft 464 kts 50°
2026-05-08 23:46 52.00677 11.84117 37182 ft 466 kts 67°
2026-05-08 23:47 52.03083 11.93914 37188 ft 467 kts 67°
2026-05-08 23:47 52.05499 12.03727 37185 ft 467 kts 67°
2026-05-08 23:48 52.07909 12.13536 37194 ft 467 kts 68°
2026-05-08 23:48 52.10305 12.23377 37199 ft 468 kts 68°
2026-05-08 23:49 52.12684 12.33166 37202 ft 468 kts 68°
2026-05-08 23:49 52.15059 12.43027 37204 ft 468 kts 68°
2026-05-08 23:50 52.17428 12.52897 37206 ft 468 kts 68°
2026-05-08 23:50 52.19794 12.62776 37207 ft 468 kts 68°
2026-05-08 23:51 52.22147 12.72667 37204 ft 468 kts 68°
2026-05-08 23:51 52.24501 12.82574 37212 ft 468 kts 68°
2026-05-08 23:52 52.26839 12.92421 37208 ft 468 kts 68°
2026-05-08 23:52 52.29173 13.02361 37210 ft 469 kts 68°
2026-05-08 23:53 52.31494 13.12316 37208 ft 469 kts 68°
2026-05-08 23:53 52.33812 13.22277 37211 ft 468 kts 68°
2026-05-08 23:54 52.36124 13.32243 37211 ft 469 kts 68°
2026-05-08 23:55 52.39576 13.47234 37210 ft 469 kts 69°
2026-05-08 23:55 52.41851 13.57176 37212 ft 469 kts 69°
2026-05-08 23:56 52.44138 13.67191 37213 ft 469 kts 69°
2026-05-08 23:56 52.46420 13.77221 37214 ft 469 kts 69°
2026-05-08 23:57 52.48688 13.87262 37214 ft 470 kts 69°
2026-05-08 23:57 52.50943 13.97338 37217 ft 470 kts 69°
2026-05-08 23:58 52.52818 14.05724 37221 ft 470 kts 69°
2026-05-08 23:58 52.55070 14.15814 37224 ft 470 kts 69°
2026-05-08 23:59 52.57314 14.25911 37225 ft 470 kts 69°
2026-05-08 23:59 52.59544 14.36020 37231 ft 470 kts 69°
2026-05-09 00:00 52.61850 14.46081 37230 ft 470 kts 68°
2026-05-09 00:00 52.64295 14.56072 37232 ft 470 kts 67°
2026-05-09 00:01 52.66745 14.66052 37234 ft 470 kts 68°
2026-05-09 00:01 52.69137 14.76076 37235 ft 470 kts 68°
2026-05-09 00:02 52.71505 14.86114 37236 ft 470 kts 68°
2026-05-09 00:02 52.73877 14.96162 37232 ft 470 kts 68°
2026-05-09 00:03 52.76246 15.06212 37233 ft 470 kts 68°
2026-05-09 00:03 52.78603 15.16285 37232 ft 470 kts 68°
2026-05-09 00:04 52.80954 15.26364 37234 ft 470 kts 68°
2026-05-09 00:04 52.83295 15.36451 37233 ft 470 kts 68°
2026-05-09 00:05 52.85629 15.46546 37230 ft 470 kts 68°
2026-05-09 00:05 52.87931 15.56580 37233 ft 469 kts 69°
2026-05-09 00:06 52.90241 15.66684 37232 ft 469 kts 69°
2026-05-09 00:06 52.92567 15.76853 37223 ft 469 kts 69°
2026-05-09 00:07 52.94845 15.86915 37212 ft 468 kts 69°
2026-05-09 00:07 52.97113 15.97020 37211 ft 467 kts 69°
2026-05-09 00:08 52.99373 16.07119 37211 ft 467 kts 69°
2026-05-09 00:08 53.01633 16.17253 37211 ft 467 kts 69°
2026-05-09 00:09 53.03884 16.27400 37210 ft 468 kts 69°
2026-05-09 00:09 53.06127 16.37546 37212 ft 468 kts 69°
2026-05-09 00:10 53.08372 16.47720 37212 ft 468 kts 69°
2026-05-09 00:10 53.10600 16.57901 37213 ft 468 kts 69°
2026-05-09 00:11 53.12815 16.68098 37216 ft 468 kts 69°
2026-05-09 00:11 53.15028 16.78297 37219 ft 469 kts 69°
2026-05-09 00:12 53.17223 16.88453 37219 ft 469 kts 69°
2026-05-09 00:12 53.19418 16.98686 37217 ft 469 kts 69°
2026-05-09 00:13 53.21602 17.08921 37217 ft 468 kts 70°
2026-05-09 00:13 53.23774 17.19171 37216 ft 468 kts 70°
2026-05-09 00:14 53.25946 17.29424 37216 ft 468 kts 70°
2026-05-09 00:14 53.28105 17.39668 37213 ft 467 kts 70°
2026-05-09 00:15 53.30255 17.49936 37212 ft 468 kts 70°
2026-05-09 00:15 53.32390 17.60211 37209 ft 467 kts 70°
2026-05-09 00:16 53.34516 17.70492 37207 ft 467 kts 70°
2026-05-09 00:16 53.36632 17.80762 37206 ft 467 kts 70°
2026-05-09 00:17 53.38740 17.91039 37207 ft 466 kts 70°
2026-05-09 00:17 53.40823 18.01254 37206 ft 466 kts 70°
2026-05-09 00:18 53.42910 18.11549 37206 ft 466 kts 71°
2026-05-09 00:18 53.44989 18.21835 37203 ft 465 kts 71°
2026-05-09 00:19 53.47053 18.32124 37202 ft 465 kts 71°
2026-05-09 00:19 53.49108 18.42428 37203 ft 465 kts 71°
2026-05-09 00:20 53.51159 18.52752 37203 ft 465 kts 71°
2026-05-09 00:20 53.53209 18.63084 37202 ft 466 kts 71°
2026-05-09 00:21 53.55231 18.73370 37201 ft 466 kts 71°
2026-05-09 00:21 53.57259 18.83740 37204 ft 467 kts 71°
2026-05-09 00:22 53.59279 18.94123 37203 ft 467 kts 71°
2026-05-09 00:22 53.61282 19.04534 37210 ft 467 kts 72°
2026-05-09 00:23 53.63284 19.14944 37213 ft 467 kts 71°
2026-05-09 00:23 53.65274 19.25347 37214 ft 466 kts 72°
2026-05-09 00:24 53.67254 19.35766 37218 ft 466 kts 72°
2026-05-09 00:24 53.69223 19.46172 37215 ft 465 kts 72°
2026-05-09 00:25 53.71172 19.56523 37215 ft 465 kts 72°
2026-05-09 00:25 53.73122 19.66933 37218 ft 464 kts 72°
2026-05-09 00:26 53.75060 19.77337 37220 ft 464 kts 72°
2026-05-09 00:26 53.76987 19.87738 37221 ft 464 kts 73°
2026-05-09 00:27 53.78900 19.98148 37222 ft 463 kts 73°
2026-05-09 00:27 53.80804 20.08545 37220 ft 462 kts 73°
2026-05-09 00:28 53.82696 20.18950 37215 ft 462 kts 73°
2026-05-09 00:28 53.84575 20.29351 37211 ft 462 kts 73°
2026-05-09 00:29 53.86445 20.39766 37205 ft 462 kts 73°
2026-05-09 00:29 53.88316 20.50186 37205 ft 462 kts 73°
2026-05-09 00:30 53.90166 20.60578 37203 ft 463 kts 73°
2026-05-09 00:30 53.92016 20.71044 37203 ft 463 kts 73°
2026-05-09 00:31 53.93852 20.81521 37204 ft 464 kts 73°
2026-05-09 00:31 53.95685 20.92018 37200 ft 464 kts 73°
2026-05-09 00:32 53.97516 21.02527 37202 ft 464 kts 74°
2026-05-09 00:32 53.99328 21.13050 37204 ft 464 kts 74°
2026-05-09 00:33 54.01127 21.23573 37210 ft 464 kts 75°
2026-05-09 00:33 54.02926 21.34092 37218 ft 462 kts 75°
2026-05-09 00:34 54.04717 21.44591 37220 ft 461 kts 75°
2026-05-09 00:34 54.06492 21.55078 37217 ft 461 kts 75°
2026-05-09 00:35 54.08240 21.65513 37218 ft 461 kts 75°
2026-05-09 00:35 54.09992 21.76025 37213 ft 462 kts 75°
2026-05-09 00:36 54.11731 21.86557 37213 ft 461 kts 75°
2026-05-09 00:36 54.13465 21.97094 37209 ft 462 kts 75°
2026-05-09 00:37 54.15190 22.07631 37205 ft 461 kts 75°
2026-05-09 00:37 54.16909 22.18189 37200 ft 461 kts 75°
2026-05-09 00:38 54.18609 22.28740 37200 ft 461 kts 75°
2026-05-09 00:38 54.20291 22.39225 37195 ft 460 kts 76°
2026-05-09 00:38 54.21134 22.44507 37084 ft 461 kts 76°
2026-05-09 00:39 54.21974 22.49786 36834 ft 459 kts 76°
2026-05-09 00:39 54.22807 22.55040 36334 ft 457 kts 76°
2026-05-09 00:39 54.23642 22.60307 35530 ft 461 kts 76°
2026-05-09 00:39 54.24479 22.65616 34678 ft 465 kts 76°
2026-05-09 00:40 54.25318 22.70981 33755 ft 469 kts 77°
2026-05-09 00:40 54.26163 22.76394 32800 ft 474 kts 77°
2026-05-09 00:40 54.27016 22.81850 32101 ft 471 kts 77°
2026-05-09 00:41 54.28684 22.92542 30520 ft 462 kts 77°
2026-05-09 00:41 54.29518 22.97899 29163 ft 458 kts 77°
2026-05-09 00:41 54.30317 23.03047 28231 ft 446 kts 77°
2026-05-09 00:41 54.31095 23.08078 27643 ft 429 kts 77°
2026-05-09 00:42 54.31860 23.12996 27007 ft 426 kts 77°
2026-05-09 00:42 54.32622 23.17875 26390 ft 422 kts 77°
2026-05-09 00:42 54.33379 23.22717 25780 ft 419 kts 77°
2026-05-09 00:42 54.34131 23.27522 25175 ft 416 kts 77°
2026-05-09 00:43 54.34878 23.32295 24571 ft 413 kts 77°
2026-05-09 00:43 54.35615 23.37033 23982 ft 409 kts 77°
2026-05-09 00:43 54.36340 23.41732 23391 ft 406 kts 77°
2026-05-09 00:43 54.37055 23.46393 22840 ft 403 kts 77°
2026-05-09 00:44 54.37760 23.51022 22292 ft 400 kts 77°
2026-05-09 00:44 54.38223 23.54070 21958 ft 397 kts 77°
2026-05-09 00:44 54.38919 23.58640 21447 ft 393 kts 77°
2026-05-09 00:44 54.39610 23.63156 20970 ft 389 kts 76°
2026-05-09 00:45 54.40292 23.67626 20500 ft 385 kts 76°
2026-05-09 00:45 54.40964 23.72061 20045 ft 381 kts 76°
2026-05-09 00:45 54.41628 23.76447 19596 ft 378 kts 76°
2026-05-09 00:45 54.42283 23.80795 19148 ft 374 kts 76°
2026-05-09 00:46 54.42930 23.85104 18700 ft 371 kts 76°
2026-05-09 00:46 54.43568 23.89382 18244 ft 368 kts 76°
2026-05-09 00:46 54.44202 23.93632 17789 ft 366 kts 76°
2026-05-09 00:46 54.44835 23.97867 17309 ft 365 kts 76°
2026-05-09 00:47 54.45462 24.02079 16826 ft 364 kts 76°
2026-05-09 00:47 54.46086 24.06280 16347 ft 362 kts 76°
2026-05-09 00:47 54.46707 24.10472 15839 ft 362 kts 76°
2026-05-09 00:47 54.47323 24.14657 15344 ft 361 kts 76°
2026-05-09 00:48 54.47940 24.18843 14827 ft 360 kts 76°
2026-05-09 00:48 54.48556 24.23014 14317 ft 359 kts 76°
2026-05-09 00:48 54.49166 24.27178 13786 ft 359 kts 76°
2026-05-09 00:48 54.49773 24.31335 13318 ft 356 kts 76°
2026-05-09 00:49 54.50353 24.35336 13186 ft 343 kts 76°
2026-05-09 00:49 54.50921 24.39269 13058 ft 331 kts 76°
2026-05-09 00:49 54.51466 24.43045 12930 ft 320 kts 76°
2026-05-09 00:49 54.51992 24.46701 12804 ft 309 kts 76°
2026-05-09 00:50 54.52502 24.50251 12624 ft 302 kts 76°
2026-05-09 00:50 54.53004 24.53730 12429 ft 298 kts 76°
2026-05-09 00:50 54.53506 24.57211 12055 ft 298 kts 76°
2026-05-09 00:50 54.54001 24.60653 11744 ft 295 kts 76°
2026-05-09 00:51 54.54485 24.64033 11393 ft 294 kts 76°
2026-05-09 00:51 54.54971 24.67445 11061 ft 292 kts 76°
2026-05-09 00:51 54.55453 24.70829 10730 ft 290 kts 76°
2026-05-09 00:51 54.55933 24.74187 10385 ft 288 kts 76°
2026-05-09 00:52 54.56408 24.77527 10045 ft 286 kts 76°
2026-05-09 00:52 54.56872 24.80844 9720 ft 283 kts 77°
2026-05-09 00:52 54.57331 24.84130 9386 ft 281 kts 77°
2026-05-09 00:52 54.57786 24.87378 9169 ft 274 kts 77°
2026-05-09 00:53 54.58191 24.90497 8994 ft 260 kts 84°
2026-05-09 00:53 54.58024 24.93519 8621 ft 253 kts 109°
2026-05-09 00:53 54.57115 24.96074 8157 ft 252 kts 134°
2026-05-09 00:53 54.55689 24.97830 7650 ft 253 kts 146°
2026-05-09 00:54 54.54195 24.99403 7177 ft 251 kts 145°
2026-05-09 00:54 54.52711 25.00976 6855 ft 249 kts 145°
2026-05-09 00:54 54.51249 25.02529 6428 ft 245 kts 144°
2026-05-09 00:54 54.49804 25.04071 5884 ft 243 kts 142°
2026-05-09 00:55 54.48567 25.05975 5358 ft 236 kts 126°
2026-05-09 00:55 54.47718 25.08339 4798 ft 230 kts 110°
2026-05-09 00:55 54.47117 25.10882 4286 ft 227 kts 109°
2026-05-09 00:55 54.46583 25.13291 4189 ft 204 kts 98°
2026-05-09 00:56 54.46653 25.15598 4102 ft 192 kts 68°
2026-05-09 00:56 54.47426 25.17427 3878 ft 195 kts 37°
2026-05-09 00:56 54.48668 25.18431 3567 ft 199 kts 25°
2026-05-09 00:56 54.49958 25.19303 3278 ft 199 kts 25°
2026-05-09 00:57 54.51246 25.20176 2966 ft 199 kts 25°
2026-05-09 00:57 54.52529 25.21057 2686 ft 197 kts 24°
2026-05-09 00:57 54.53805 25.21937 2419 ft 197 kts 24°
2026-05-09 00:57 54.55047 25.22794 2163 ft 186 kts 24°
2026-05-09 00:58 54.56195 25.23585 1935 ft 170 kts 23°
2026-05-09 00:58 54.57246 25.24310 1712 ft 156 kts 22°
2026-05-09 00:58 54.58209 25.24975 1503 ft 143 kts 22°
2026-05-09 00:58 54.59094 25.25584 1328 ft 132 kts 22°
2026-05-09 00:59 54.59934 25.26168 1149 ft 128 kts 22°
2026-05-09 00:59 54.60760 25.26737 988 ft 127 kts 22°
2026-05-09 00:59 54.61583 25.27307 813 ft 127 kts 23°
2026-05-09 00:59 54.62412 25.27881 642 ft 129 kts 22°
2026-05-09 01:00 54.63168 25.28405 605 ft 98 kts 22°
2026-05-09 01:00 54.63634 25.28730 628 ft 46 kts 20°
2026-05-09 01:00 54.63864 25.28742 636 ft 26 kts 352°
2026-05-09 01:00 54.64023 25.28721 643 ft 20 kts 355°
2026-05-09 01:01 54.64109 25.28694 646 ft 8 kts 324°
2026-05-09 01:01 54.64120 25.28598 644 ft 12 kts 266°
2026-05-09 01:01 54.64118 25.28408 640 ft 17 kts 270°
2026-05-09 01:01 54.64155 25.28289 643 ft 9 kts 319°
2026-05-09 01:02 54.64185 25.28217 638 ft 6 kts 304°
2026-05-09 01:02 54.64210 25.28203 637 ft 2 kts 356°
2026-05-09 01:02 54.64220 25.28203 637 ft 3 kts
2026-05-09 01:02 54.64230 25.28203 637 ft 0 kts 360°
2026-05-09 01:03 54.64237 25.28203 637 ft 0 kts 360°